DW2741 Weather Reports


time (UTC)temp
C
wind
direction
speed
KPH
gust
KPH
rain 1hr
cm
rain 24hr
cm
rain mn
cm
humidity
%
barometer
mb
20260906083053 23 112 0.0 4.8 0.00 0.00 0.00 86 1010.9
20260906081554 23 63 0.0 6.4 0.00 0.00 0.00 87 1011.0
20260906080052 23 34 0.0 6.4 0.00 0.00 0.00 88 1010.8
20260906074533 23 5 0.0 3.2 0.00 0.00 0.00 89 1010.8
20260906073030 23 299 0.0 0.0 0.00 0.00 0.00 89 1010.4
20260906071510 24 299 0.0 0.0 0.00 0.00 0.00 88 1010.6
20260906070009 24 299 0.0 0.0 0.00 0.00 0.00 88 1010.5
20260906064551 24 299 0.0 0.0 0.00 0.00 0.00 88 1010.9
20260906063051 24 299 0.0 0.0 0.00 0.00 0.00 88 1010.8
20260906061537 24 299 0.0 0.0 0.00 0.00 0.00 87 1010.5
20260906060032 24 299 0.0 0.0 0.00 0.00 0.00 87 1010.5
20260906054516 24 299 0.0 0.0 0.00 0.00 0.00 86 1010.5
20260906053017 25 299 0.0 0.0 0.00 0.00 0.00 86 1010.5
20260906051555 25 299 0.0 0.0 0.00 0.00 0.00 85 1010.6
20260906050112 25 299 0.0 0.0 0.00 0.00 0.00 84 1010.5
20260906044540 25 299 0.0 0.0 0.00 0.00 0.00 84 1010.7
20260906043042 25 299 0.0 0.0 0.00 0.00 0.00 83 1010.9
20260906041515 25 299 0.0 0.0 0.00 0.00 0.00 83 1010.8
20260906040014 25 342 0.0 0.0 0.00 0.00 0.00 82 1010.8
20260906034603 25 342 0.0 0.0 0.00 0.00 0.00 82 1010.7
20260906033056 25 342 0.0 0.0 0.00 0.00 0.00 81 1010.6
20260906031546 26 342 0.0 0.0 0.00 0.00 0.00 81 1010.6
20260906030033 26 342 0.0 0.0 0.00 0.00 0.00 80 1010.5
20260906024514 26 342 0.0 0.0 0.00 0.00 0.00 80 1010.3
20260906023018 26 342 0.0 0.0 0.00 0.00 0.00 78 1010.1
20260906021603 26 342 0.0 0.0 0.00 0.00 0.00 78 1009.9
20260906020058 27 342 0.0 0.0 0.00 0.00 0.00 78 1010.2
20260906014535 27 342 0.0 0.0 0.00 0.00 0.00 76 1010.0
20260906013030 27 342 0.0 0.0 0.00 0.00 0.00 74 1009.6
20260906011513 28 342 0.0 0.0 0.00 0.00 0.00 73 1009.2
20260906010006 28 342 0.0 0.0 0.00 0.00 0.00 71 1009.0
20260906004545 30 342 0.0 0.0 0.00 0.00 0.00 70 1008.8
20260906003044 31 342 0.0 0.0 0.00 0.00 0.00 69 1009.0
20260906001519 31 206 0.0 0.0 0.00 0.00 0.00 68 1008.9
20260906000018 32 206 0.0 0.0 0.00 0.00 0.00 64 1009.0
20260905234559 32 206 0.0 0.0 0.00 0.00 0.00 65 1009.1
20260905233105 33 206 0.0 0.0 0.00 0.00 0.00 60 1009.2
20260905231533 34 206 0.0 0.0 0.00 0.00 0.00 59 1008.9
20260905230029 35 206 0.0 0.0 0.00 0.00 0.00 53 1008.8
20260905224511 37 206 0.0 0.0 0.00 0.00 0.00 49 1008.6
20260905223029 37 225 0.0 0.0 0.00 0.00 0.00 50 1008.7
20260905221612 37 225 0.0 0.0 0.00 0.00 0.00 49 1008.8
20260905220100 37 225 0.0 0.0 0.00 0.00 0.00 51 1008.8
20260905214551 37 225 0.0 0.0 0.00 0.00 0.00 49 1008.9
20260905213035 37 225 0.0 0.0 0.00 0.00 0.00 48 1008.9
20260905211542 37 225 0.0 0.0 0.00 0.00 0.00 48 1008.9
20260905210012 37 225 0.0 0.0 0.00 0.00 0.00 48 1009.0
20260905204511 37 223 0.0 0.0 0.00 0.00 0.00 51 1009.2
20260905203052 36 222 0.0 0.0 0.00 0.00 0.00 50 1009.3
20260905201557 36 222 0.0 0.0 0.00 0.00 0.00 51 1009.6
20260905200048 36 225 0.0 0.0 0.00 0.00 0.00 50 1009.8
20260905194532 36 228 0.0 0.0 0.00 0.00 0.00 53 1010.2
20260905193006 36 228 0.0 0.0 0.00 0.00 0.00 54 1010.3
20260905191504 36 228 0.0 0.0 0.00 0.00 0.00 54 1010.3
20260905190052 36 228 0.0 0.0 0.00 0.00 0.00 56 1010.7
20260905184550 36 226 0.0 0.0 0.00 0.00 0.00 53 1010.9
20260905183049 35 228 0.0 0.0 0.00 0.00 0.00 57 1011.1
20260905181544 35 228 0.0 0.0 0.00 0.00 0.00 53 1011.2
20260905180041 35 227 0.0 0.0 0.00 0.00 0.00 54 1011.4
20260905174540 35 227 0.0 0.0 0.00 0.00 0.00 56 1011.4
20260905173040 35 218 0.0 0.0 0.00 0.00 0.00 60 1011.7
20260905171555 34 218 0.0 0.0 0.00 0.00 0.00 59 1011.9
20260905170028 34 195 0.0 0.0 0.00 0.00 0.00 60 1011.9
20260905164521 34 194 0.0 0.0 0.00 0.00 0.00 61 1012.0
20260905163003 33 194 0.0 0.0 0.00 0.00 0.00 64 1012.2
20260905161503 33 194 0.0 0.0 0.00 0.00 0.00 66 1012.4
20260905160050 32 194 0.0 0.0 0.00 0.00 0.00 69 1012.5
20260905154553 32 194 0.0 0.0 0.00 0.00 0.00 70 1012.6
20260905153028 31 194 0.0 0.0 0.00 0.00 0.00 72 1012.7
20260905151529 30 195 0.0 0.0 0.00 0.00 0.00 76 1012.7
20260905150009 30 194 0.0 0.0 0.00 0.00 0.00 82 1012.5
20260905144508 28 195 0.0 0.0 0.00 0.00 0.00 85 1012.6
20260905143052 28 194 0.0 0.0 0.00 0.00 0.00 89 1012.7
20260905141550 27 194 0.0 0.0 0.00 0.00 0.00 91 1012.8
20260905140037 26 195 0.0 0.0 0.00 0.00 0.00 92 1012.8
20260905134531 26 194 0.0 0.0 0.00 0.00 0.00 93 1013.0
20260905133013 25 194 0.0 0.0 0.00 0.00 0.00 93 1013.1
20260905131513 24 194 0.0 0.0 0.00 0.00 0.00 93 1013.2
20260905130055 23 194 0.0 0.0 0.00 0.00 0.00 93 1013.2
20260905124555 23 194 0.0 0.0 0.00 0.00 0.00 93 1013.2
20260905123037 22 194 0.0 0.0 0.00 0.00 0.00 92 1013.2
20260905121536 22 194 0.0 0.0 0.00 0.00 0.00 92 1013.0
20260905120018 22 194 0.0 0.0 0.00 0.00 0.00 92 1012.8
20260905114517 22 194 0.0 0.0 0.00 0.00 0.00 92 1012.8
20260905113059 22 194 0.0 0.0 0.00 0.00 0.00 92 1012.5
20260905111612 22 194 0.0 0.0 0.00 0.00 0.00 92 1012.5
20260905110041 22 194 0.0 0.0 0.00 0.00 0.00 92 1012.2
20260905104546 22 194 0.0 0.0 0.00 0.00 0.00 92 1012.1
20260905103022 22 194 0.0 0.0 0.00 0.00 0.00 92 1011.9
20260905101521 22 194 0.0 0.0 0.00 0.00 0.00 92 1011.7
20260905100003 22 194 0.0 0.0 0.00 0.00 0.00 91 1011.7
20260905094503 22 194 0.0 0.0 0.00 0.00 0.00 91 1011.8
20260905093045 23 194 0.0 0.0 0.00 0.00 0.00 91 1011.8
20260905091546 23 194 0.0 0.0 0.00 0.00 0.00 91 1011.7
20260905090024 23 194 0.0 0.0 0.00 0.00 0.00 91 1011.7
20260905084530 23 194 0.0 0.0 0.00 0.00 0.00 91 1011.5